Tracking 33188 objects as of 10-Feb-2026
HD Live streaming from Space Station
objects crossing your sky now

STARLINK-34735

Track STARLINK-34735 now!
10-day predictions
STARLINK-34735 is classified as:


NORAD ID: 65072
Int'l Code: 2025-165S
Perigee: 555.7 km
Apogee: 557.5 km
Inclination: 97.6 °
Period: 95.6 minutes
Semi major axis: 6927 km
RCS: Unknown
Launch date: July 31, 2025
Source: United States (US)
Launch site: AIR FORCE WESTERN TEST RANGE (AFWTR)
Your satellite tracking list
Your tracking list is empty




NASA's NSSDC Master Catalog

Two Line Element Set (TLE):
1 65072U 25165S   26041.18737353  .00003563  00000-0  25096-3 0  9991
2 65072  97.6024 120.1420 0001323  96.1863 263.9515 15.05658586 30656
Source of the keplerian elements: AFSPC